weather.gov     
National Weather Service

Regional Weather Roundup
NWS Homepage
This page is being discontinued on March 12, 2014.
The same data is available at this site. Please update your bookmarks.
Thank you, and we apologize for the inconvenience.
Please send an email to SR-SRH.Webmaster@noaa.gov with any concerns.


Current Version
Previous Version:    01  02  03  04  05  06  07  08  09  10  11  12  13  14  15  16  17  18  19  20  21  22  23  24  25  26  27  28  29  30  
   31  32  33  34  35  36  37  38  39  40  41  42  43  44  45  46  47  48  49  50  51  52  53  
[Printable]
403
ASUS44 KMAF 191301
RWRMAF
MIDLAND AREA WEATHER ROUNDUP
NATIONAL WEATHER SERVICE MIDLAND TX
700 AM CST FRI DEC 19 2014

...IN SOUTHWEST TEXAS AND SOUTHEAST NEW MEXICO...

CITY           SKY/WX    TMP DP  RH WIND       PRES   REMARKS
ALPINE         CLEAR     32  28  85 S6        30.19R WCI  26
ANDREWS        CLOUDY    37  37 100 SE7       30.12R FOG     WCI  32
ARTESIA        MOCLDY    36  34  93 W9        30.13R WCI  29
BIG SPRING     CLOUDY    41  37  87 NE10      30.16R WCI  35
CARLSBAD       CLEAR     39  32  76 CALM      30.12R
DRYDEN           N/A     48  37  65 NW3       30.08R
FORT STOCKTON  CLEAR     40  31  70 CALM      30.13R
GUAD PASS      NOT AVBL
HOBBS          FOG       34  34 100 CALM      30.12R VSB 1/4
MARFA          CLEAR     27  25  93 N3        30.16R
MIDLAND AIRPK  CLOUDY    41  38  91 E3        30.14R FOG
MIDLAND INTL   CLOUDY    40  38  93 E6        30.13R FOG     WCI  36
ODESSA         FOG       39  38  96 E5        30.14R VSB 1/2 WCI  36
PECOS          FAIR      35  30  82 CALM      30.13R
PRESIDIO       FAIR      42  32  68 CALM      30.13R
SEMINOLE       FOG       36  36  99 CALM      30.12S VSB 3/4
SNYDER         CLOUDY    39  37  92 E8        30.16R WCI  33
WINK           CLEAR     35  31  85 E3        30.12R
$$
...OTHER STATIONS IN TEXAS...

CITY           SKY/WX    TMP DP  RH WIND       PRES   REMARKS
ABILENE        CLOUDY    43  41  93 NE5       30.18R
AMARILLO       CLOUDY    35  35 100 SW3       30.12R FOG
AUSTIN         LGT RAIN  49  49 100 N16       30.10R FOG
BROWNSVILLE    CLOUDY    66  65  96 W3        29.96R FOG
CORPUS CHRISTI LGT RAIN  68  67  96 S3        29.96R FOG
DALLAS FTW     LGT RAIN  45  44  97 N6        30.17R FOG
DEL RIO        CLOUDY    57  51  80 NW5       30.05R
EL PASO        CLEAR     36  34  92 NE5       30.16R WCI  32
HOUSTON INT    LGT RAIN  57  57 100 NE5       30.02R FOG
LUBBOCK        CLOUDY    38  37  97 SE7       30.13R WCI  33
SAN ANGELO     CLOUDY    45  42  89 NE12      30.15R WCI  39
SAN ANTONIO    DRIZZLE   52  49  89 N13G21    30.07R FOG
WACO           LGT RAIN  47  46  97 CALM      30.18R FOG
WICHITA FALLS  NOT AVBL
$$
...OTHER LOCATIONS IN NEW MEXICO...

CITY           SKY/WX    TMP DP  RH WIND       PRES   REMARKS
ALAMAGORDO     PTCLDY    36  32  87 NW7       30.16R WCI  30
ALBUQUERQUE    CLEAR     32  26  78 N6        30.18R WCI  26
CANNON AFB     CLOUDY    36  35  97 S8        30.09S FOG     WCI  30
CLOVIS         CLOUDY    36  34  93 S10       30.09S WCI  28
HOLLOMAN AFB   PTCLDY    34  33  99 N6        30.15R WCI  28
ROSWELL        CLEAR     36  31  82 N3        30.11R
RUIDOSO        CLEAR     28  25  86 W12       30.13R WCI  18
SANTA FE       CLEAR     25  21  85 NW5       30.12R WCI  19
TRUTH OR CONSE CLEAR     31  27  85 N6        30.16R WCI  25
TUCUMCARI      CLOUDY    35  31  85 N9        30.11R WCI  28
$$




U.S. Dept. of Commerce
NOAA National Weather Service
1325 East West Highway
Silver Spring, MD 20910
E-mail: w-nws.webmaster@noaa.gov
Page last modified: May 16, 2007
NATIONAL WEATHER SERVICE: for Safety, for Work, for Fun - FOR LIFE